Location: Rounton
(54.4000°N, 1.3500°W)
Time: 22:21:47
(UTC+01:00)

Vanguard 1 - Pass Details

Date: 25 February 2024
Orbit: 653 x 3825 km, 34.2° (Epoch: 21 April)

Event Time Altitude Azimuth Distance (km) Brightness Sun altitude
Rises 02:03:16 0° 274° (W) 7,455 14.3 -40.3°
Enters shadow 02:05:34 - 270° (W) 7,179 14.2 -40.1°
Reaches altitude 10° 02:09:44 10° 262° (W) 6,726 - -39.8°
Maximum altitude 02:24:51 23° 221° (SW) 5,824 - -38.4°
Drops below altitude 10° 02:39:25 10° 179° (S) 6,390 - -36.9°
Exits shadow 02:42:43 - 171° (S) 6,706 14.0 -36.6°
Sets 02:45:26 0° 166° (SSE) 7,007 14.2 -36.3°
